Flag for Saint Lucia Weather past 2 weeks in Vieux Fort, Saint Lucia

Now
81 °F

Passing clouds.


Feels Like: 85 °F
Forecast: 79 / 85 °F
Wind: 18 mph from East

Location: Hewanorra International Airport

Current Time: Dec 21, 2014 at 1:40:05 AM

Latest Report: Dec 21, 2014 at 1:00 AM


Visibility: N/A

Pressure: 29.98 "Hg

Humidity: 74%

Dew point: 72 °F

Location of Vieux FortLocation

Historic Weather in Vieux Fort — Graph

°F

Vieux Fort temperature yesterday

Maximum temperature yesterday: 86 °F (at 1:00 PM)
Minimum temperature yesterday: 77 °F (at 4:00 AM)
Average temperature yesterday: 82 °F

Past Weeks' High & Low Weather Summary

 TemperatureHumidityPressure
High86 °F (Dec 6, 1:00 PM)100% (Dec 6, 3:00 AM)30.04 "Hg (Dec 6, 3:00 AM)
Low72 °F (Dec 6, 3:00 AM)62% (Dec 11, 4:00 PM)29.83 "Hg (Dec 6, 3:00 AM)
Average81 °F77%29.93 "Hg
* Reported Midnight between Dec 5 and Dec 6 — Midnight between Dec 20 and Dec 21, Vieux Fort, Weather by CustomWeather, © 2014

Note: Actual official high and low records may vary slightly from our data, if they occured in-between our weather recording intervals... More about our weather records

Advertising

Vieux Fort weather history for previous 24 hours

 ConditionsComfort  
Time TempWeatherWind HumidityBarometerVisibility
12:00 AM
Dec 21
81 °FPassing clouds.16 mph74%29.98 "HgN/A
11:00 PM
Dec 20
81 °FPassing clouds.17 mph79%29.98 "HgN/A
10:00 PM81 °FPassing clouds.16 mph79%29.98 "HgN/A
9:00 PM81 °FPassing clouds.17 mph79%29.98 "HgN/A
8:00 PM81 °FPassing clouds.16 mph79%29.98 "HgN/A
7:00 PM81 °FPassing clouds.17 mph74%29.95 "HgN/A
6:00 PM81 °FPassing clouds.16 mph79%29.95 "HgN/A
5:00 PM82 °FPartly sunny.16 mph74%29.92 "HgN/A
4:00 PM84 °FPassing clouds.15 mph70%29.92 "HgN/A
3:00 PM86 °FPassing clouds.20 mph70%29.92 "HgN/A
2:00 PM84 °FScattered clouds.15 mph70%29.95 "HgN/A
1:00 PM86 °FScattered clouds.17 mph70%29.95 "HgN/A
12:00 PM84 °FPartly sunny.18 mph70%29.98 "HgN/A
11:00 AM84 °FPartly sunny.18 mph70%30.01 "HgN/A
10:00 AM84 °FScattered clouds.20 mph70%30.01 "HgN/A
9:00 AM84 °FPassing clouds.17 mph70%30.01 "HgN/A
8:00 AM82 °FScattered showers. Passing clouds.18 mph74%29.98 "HgN/A
7:00 AM81 °FPassing clouds.17 mph79%29.95 "HgN/A
6:00 AM79 °FPassing clouds.17 mph84%29.92 "HgN/A
5:00 AM79 °FPassing clouds.17 mph79%29.92 "HgN/A
4:00 AM77 °FPassing clouds.9 mph89%29.89 "HgN/A
3:00 AM81 °FPassing clouds.12 mph79%29.89 "HgN/A
2:00 AM81 °FPassing clouds.9 mph79%29.92 "HgN/A
1:00 AM81 °FPassing clouds.9 mph79%29.92 "HgN/A
Weather by CustomWeather, © 2014

See weather overviewHow to use our weather pages